User: anonymous   Login
Location: Unspecified
(0.0000°N, 0.0000°E)
Time: 07:44:54
(UTC+02:00)
Language:

ARIANE DEB (SPELDA) - Orbit

View from above orbital plane
View from above orbital plane
View from above satellite
View from above satellite

Ground track
Ground track

The orbit data is extracted from the following two-line orbital elements,

1 27402U 02015D   16206.88553769  .00001595  00000-0  10234-2 0  9991
2 27402   3.4775 269.9431 7098980  28.5816 356.4928  2.48246430125916
Epoch (UTC): 24 July 2016 21:15:10
Eccentricity: 0.7098980
inclination: 3.4775°
perigee height: 306 km
apogee height: 33017 km
right ascension of ascending node: 269.9431°
argument of perigee: 28.5816°
revolutions per day: 2.48246430
mean anomaly at epoch: 356.4928°
orbit number at epoch: 12591

The dashed part of the orbit path shows where the satellite is in the earth's shadow,  

DLR